This is the latest recevied weather packets stored in our database for station/object YO6LRV-6. If no packets are shown the sender has not sent any weather packets the latest 10 day(s).
| Time | Temp. | Humidity | Pressure | Rain* | Wind** | Luminosity | Snow |
|---|---|---|---|---|---|---|---|
| 1777747051 | 7.22° C | 61% | 1039.4 hPa | - | - | - | - |
| 1777746153 | 7.22° C | 61% | 1039.2 hPa | - | - | - | - |
| 1777745253 | 7.22° C | 61% | 1039 hPa | - | - | - | - |
| 1777744353 | 7.78° C | 59% | 1038.9 hPa | - | - | - | - |
| 1777743453 | 8.33° C | 57% | 1038.6 hPa | - | - | - | - |
| 1777742553 | 9.44° C | 50% | 1038.3 hPa | - | - | - | - |
| 1777741653 | 11.11° C | 43% | 1038 hPa | - | - | - | - |
| 1777740753 | 12.22° C | 37% | 1038 hPa | - | - | - | - |
| 1777739852 | 12.78° C | 36% | 1037.9 hPa | - | - | - | - |
| 1777738952 | 12.22° C | 37% | 1038 hPa | - | - | - | - |
| 1777738052 | 12.78° C | 33% | 1038 hPa | - | - | - | - |
| 1777737152 | 13.33° C | 33% | 1038.1 hPa | - | - | - | - |
| 1777736264 | 13.33° C | 33% | 1038.1 hPa | - | - | - | - |
| 1777735352 | 14.44° C | 33% | 1038.1 hPa | - | - | - | - |
| 1777734452 | 16.11° C | 28% | 1038.2 hPa | - | - | - | - |
| 1777733552 | 16.11° C | 29% | 1038.5 hPa | - | - | - | - |
| 1777732652 | 15.56° C | 30% | 1038.6 hPa | - | - | - | - |
| 1777731751 | 15.56° C | 29% | 1038.7 hPa | - | - | - | - |
| 1777730851 | 16.67° C | 27% | 1038.6 hPa | - | - | - | - |
| 1777729951 | 15° C | 32% | 1038.8 hPa | - | - | - | - |
| 1777729051 | 15.56° C | 28% | 1038.9 hPa | - | - | - | - |
| 1777728151 | 16.67° C | 28% | 1039.1 hPa | - | - | - | - |
| 1777727251 | 15.56° C | 31% | 1039.2 hPa | - | - | - | - |
| 1777726351 | 16.11° C | 29% | 1039.3 hPa | - | - | - | - |
| 1777725450 | 17.22° C | 30% | 1039.5 hPa | - | - | - | - |
* Rain since midnight (hover to see other rain measurements)
** Current wind speed in m/s (hover to see current wind gust speed)